www.eilenburg-mitte.de
Wetterdaten: aktuell Montag, 20.09.2021 09:25
Datum Zeit Temp. A. Temp + 5 cm Temp - 10 cm Feuchte A. Luftdruck Regen Wind Richtung Richtung Sonnenschein T Regen ET Solar Taupunkt Windchill Windböen Empfang
20.09.2021 09:25 10,9 °C 11,7 °C 13,3 °C 89 % 1019,3 hPa 0,0 l/m² 1,5 km/h (1 Bft) NO 46 ° 0 min 0 min 0,025 mm 109 W/m² 9,2 °C 10,9 °C 4,8 km/h (1 Bft) 99,12 %
20.09.2021 08:25 10,3 °C 10,6 °C 13,3 °C 89 % 1018,9 hPa 0,0 l/m² 0,0 km/h (0 Bft) NO 47 ° 0 min 0 min 0,000 mm 51 W/m² 8,6 °C 10,3 °C 0,0 km/h (0 Bft) 100,00 %
20.09.2021 07:30 10,2 °C 10,0 °C 13,3 °C 89 % 1018,7 hPa 0,0 l/m² 0,0 km/h (0 Bft) O-NO 57 ° 0 min 0 min 0,000 mm 14 W/m² 8,5 °C 10,2 °C 1,6 km/h (1 Bft) 98,21 %
20.09.2021 06:30 10,4 °C 10,0 °C 13,3 °C 89 % 1018,1 hPa 0,0 l/m² 0,5 km/h (0 Bft) NO 56 ° 0 min 0 min 0,000 mm 0 W/m² 8,7 °C 10,4 °C 1,6 km/h (1 Bft) 100,00 %
20.09.2021 05:30 10,5 °C 10,0 °C 13,9 °C 89 % 1017,8 hPa 0,0 l/m² 0,1 km/h (0 Bft) O-NO 59 ° 0 min 0 min 0,000 mm 0 W/m² 8,8 °C 10,5 °C 1,6 km/h (1 Bft) 99,21 %
20.09.2021 04:30 10,6 °C 10,6 °C 13,9 °C 89 % 1017,5 hPa 0,0 l/m² 0,0 km/h (0 Bft) O-NO 75 ° 0 min 0 min 0,000 mm 0 W/m² 8,9 °C 10,6 °C 1,6 km/h (1 Bft) 99,15 %
20.09.2021 03:30 10,7 °C 10,6 °C 13,9 °C 89 % 1017,4 hPa 0,0 l/m² 0,0 km/h (0 Bft) O-NO 76 ° 0 min 0 min 0,000 mm 0 W/m² 9,0 °C 10,7 °C 0,0 km/h (0 Bft) 99,12 %
20.09.2021 02:30 10,9 °C 10,6 °C 13,9 °C 89 % 1017,4 hPa 0,0 l/m² 0,0 km/h (0 Bft) O-NO 76 ° 0 min 0 min 0,000 mm 0 W/m² 9,2 °C 10,9 °C 0,0 km/h (0 Bft) 100,00 %
20.09.2021 01:30 11,0 °C 10,6 °C 14,4 °C 88 % 1017,3 hPa 0,0 l/m² 0,0 km/h (0 Bft) O-NO 75 ° 0 min 0 min 0,000 mm 0 W/m² 9,1 °C 11,0 °C 0,0 km/h (0 Bft) 99,13 %
20.09.2021 00:30 11,2 °C 10,6 °C 14,4 °C 87 % 1017,3 hPa 0,0 l/m² 0,0 km/h (0 Bft) O-NO 76 ° 0 min 0 min 0,000 mm 0 W/m² 9,1 °C 11,2 °C 0,0 km/h (0 Bft) 99,17 %
19.09.2021 23:30 11,3 °C 11,1 °C 14,4 °C 87 % 1017,2 hPa 0,0 l/m² 0,0 km/h (0 Bft) O-NO 75 ° 0 min 0 min 0,000 mm 0 W/m² 9,2 °C 11,3 °C 0,0 km/h (0 Bft) 99,19 %
19.09.2021 22:30 11,6 °C 11,1 °C 15,0 °C 85 % 1017,1 hPa 0,0 l/m² 0,0 km/h (0 Bft) O-NO 75 ° 0 min 0 min 0,000 mm 0 W/m² 9,2 °C 11,6 °C 0,0 km/h (0 Bft) 100,00 %
19.09.2021 21:30 11,7 °C 11,1 °C 15,0 °C 83 % 1016,9 hPa 0,0 l/m² 0,0 km/h (0 Bft) O-NO 75 ° 0 min 0 min 0,000 mm 0 W/m² 8,9 °C 11,7 °C 0,0 km/h (0 Bft) 99,17 %
19.09.2021 20:30 11,9 °C 11,1 °C 15,0 °C 80 % 1016,7 hPa 0,0 l/m² 0,0 km/h (0 Bft) O-NO 75 ° 0 min 0 min 0,000 mm 0 W/m² 8,6 °C 11,9 °C 0,0 km/h (0 Bft) 100,00 %
19.09.2021 19:30 12,4 °C 11,7 °C 15,6 °C 77 % 1016,3 hPa 0,0 l/m² 0,0 km/h (0 Bft) O-NO 75 ° 0 min 0 min 0,025 mm 0 W/m² 8,5 °C 12,4 °C 0,0 km/h (0 Bft) 100,00 %
19.09.2021 18:30 13,4 °C 12,2 °C 16,1 °C 73 % 1016,1 hPa 0,0 l/m² 0,1 km/h (0 Bft) O-NO 76 ° 10 min 0 min 0,076 mm 24 W/m² 8,7 °C 13,4 °C 1,6 km/h (1 Bft) 100,00 %
19.09.2021 17:30 14,1 °C 12,8 °C 16,1 °C 68 % 1015,8 hPa 0,0 l/m² 2,4 km/h (1 Bft) NO 49 ° 35 min 0 min 0,203 mm 160 W/m² 8,3 °C 14,1 °C 6,4 km/h (2 Bft) 100,00 %
19.09.2021 16:30 14,0 °C 14,4 °C 16,1 °C 68 % 1016,1 hPa 0,0 l/m² 2,6 km/h (1 Bft) NO 44 ° 30 min 0 min 0,127 mm 263 W/m² 8,2 °C 14,0 °C 8,0 km/h (2 Bft) 100,00 %
19.09.2021 15:30 14,1 °C 16,1 °C 16,1 °C 67 % 1016,3 hPa 0,0 l/m² 3,2 km/h (1 Bft) NO 52 ° 15 min 0 min 0,127 mm 321 W/m² 8,1 °C 14,1 °C 6,4 km/h (2 Bft) 100,00 %
19.09.2021 14:30 13,0 °C 14,4 °C 15,6 °C 67 % 1016,6 hPa 0,0 l/m² 2,7 km/h (1 Bft) SO 145 ° 0 min 0 min 0,127 mm 173 W/m² 7,0 °C 13,0 °C 8,0 km/h (2 Bft) 100,00 %
19.09.2021 13:30 13,2 °C 13,9 °C 15,0 °C 72 % 1016,8 hPa 0,0 l/m² 3,4 km/h (1 Bft) S-SO 148 ° 0 min 0 min 0,102 mm 217 W/m² 8,3 °C 13,2 °C 6,4 km/h (2 Bft) 99,07 %
19.09.2021 12:30 12,8 °C 13,3 °C 15,0 °C 73 % 1016,9 hPa 0,0 l/m² 3,2 km/h (1 Bft) S-SO 152 ° 0 min 0 min 0,102 mm 191 W/m² 8,1 °C 12,8 °C 6,4 km/h (2 Bft) 99,10 %
19.09.2021 11:30 12,6 °C 13,3 °C 15,0 °C 75 % 1017,0 hPa 0,0 l/m² 2,3 km/h (1 Bft) O-NO 64 ° 0 min 0 min 0,076 mm 155 W/m² 8,3 °C 12,6 °C 4,8 km/h (1 Bft) 100,00 %
19.09.2021 10:30 11,7 °C 12,8 °C 14,4 °C 84 % 1016,8 hPa 0,0 l/m² 1,8 km/h (1 Bft) S-SO 147 ° 0 min 0 min 0,051 mm 162 W/m² 9,1 °C 11,7 °C 8,0 km/h (2 Bft) 98,35 %
19.09.2021 10:00 11,3 °C 12,2 °C 14,4 °C 87 % 1016,6 hPa 0,0 l/m² 1,4 km/h (1 Bft) O-NO 76 ° 0 min 0 min 0,051 mm 123 W/m² 9,2 °C 11,3 °C 4,8 km/h (1 Bft) 98,41 %
_ Min-Zeit 07:00 05:00 06:30 16:15 17:10 - 18:10 - - - - - - 14:30 07:00 18:10 13:20
Minimum _ 10,2 °C 10,0 °C 13,3 °C 66 % 1015,8 hPa - 0,0 km/h (0 Bft) - - - - - - 7,0 °C 10,2 °C 0,0 km/h (0 Bft) 97,50 %
_ Max-Zeit 15:40 16:10 15:30 01:35 09:25 10:00 12:15 - - 15:00 10:00 17:00 16:45 00:35 15:40 15:25 10:35
Maximum _ 14,2 °C 17,8 °C 16,1 °C 89 % 1019,3 hPa 0,0 l/m² 4,6 km/h
SO (1 Bft)
- - 5 min 0 min 0,203 mm 461 W/m² 9,3 °C 14,2 °C 12,9 km/h
O-SO (3 Bft)
100,00 %
Durchschnitt _ 11,8 °C 12,0 °C 14,7 °C 82 % 1017,1 hPa #0,0 l/m² 1,0 km/h (0 Bft) O-NO - #0 min. #0 min. #0,025 mm 47 W/m² 8,7 °C 11,8 °C 3,0 km/h (1 Bft) 99,48 %